Probability
0 0 0 0 0 0 0 0 0 0 0 0 0 0 0 0 0 0 0 0 0 0 0 0 0 0 0 0 0 0 0 0 0 0 0 0 0 0 0 0 0 0 0
0 0 0 0 0 0 0 0 0 0 0 0 0 0 0 0 0 0 0 0 0 0 0 0 0 0 0 0 0 0 0 0 0 0 0 0 0 0 0 0 0 0 0
0 0 0 0 0 0 0 0 0 0 0 0 0 0 0 0 0 0 0 0 0 0 0 0 0 0 0 0 0 0 0 0 0 0 0 0 0 0 0 0 0 0 0
0 0 0 0 0 0 0 0 0 0 0 0 0 0 0 0 0 0 0 0 0 0 0 0 0 0 0 0 0 0 0 0 0 0 0 0 0 0 0 0 0 0 0
0 0 0 0 0 0 0 0 0 0 0 0 0 0 0 0 0 0 0 0 0 0 0 0 0 0 0 0 0 0 0 0 0 0 0 0 0 0 0 0 0 0 0
0 0 0 0 0 0 0 0 0 0 0 0 0 0 0 0 0 0 0 0 0 0 0 0 0 0 0 0 0 0 0 0 0 0 0 0 0 0 0 0 0 0 0
0 0 0 0 0 0 0 0 0 0 0 0 0 0 0 0 0 0 0 0 0 0 0 0 0 0 0 0 0 0 0 0 0 0 0 0 0 0 0 0 0 0 0
0 0 0 0 0 0 0 0 0 0 0 0 0 0 0 0 0 0 0 0 0 0 0 0 0 0 0 0 0 0 0 0 0 0 0 0 0 0 0 0 0 0 0
0 0 0 0 0 0 0 0 0 0 0 0 0 0 0 0 0 0 0 0 0 0 0 0 0 0 0 0 0 0 0 0 0 0 0 0 0 0 0 0 0 0 0
0 0 0 0 0 0 0 0 0 0 0 0 0 0 0 0 0 0 0 0 0 0 0 0 0 0 0 0 0 0 0 0 0 0 0 0 0 0 0 0 0 0 0
0 0 0 0 0 0 0 0 0 0 0 0 0 0 0 0 0 0 0 0 0 0 0 0 0 0 0 0 0 0 0 0 0 0 0 0 0 0 0 0 0 0 0
0 0 0 0 0 0 0 0 0 0 0 0 0 0 0 0 0 0 0 0 0 0 0 0 0 0 0 0 0 0 0 0 0 0 0 0 0 0 0 0 0 0 0
0 0 0 0 0 0 0 0 0 0 0 0 0 0 0 0 0 0 0 0 0 0 0 0 0 0 0 0 0 0 0 0 0 0 0 0 0 0 0 0 0 0 0
0 0 0 0 0 0 0 0 0 0 0 0 0 0 0 0 0 0 0 0 0 0 0 0 0 0 0 0 0 0 0 0 0 0 0 0 0 0 0 0 0 0 0
0 0 0 0 0 0 0 0 0 0 0 0 0 0 0 0 0 0 0 0 0 0 0 0 0 0 0 0 0 0 0 0 0 0 0 0 0 0 0 0 0 0 0
0 0 0 0 0 0 0 0 0 0 0 0 0 0 0 0 0 0 0 0 0 0 0 0 0 0 0 0 0 0 0 0 0 0 0 0 0 0 0 0 0 0 0
0 0 0 0 0 0 0 0 0 0 0 0 0 0 0 0 0 0 0 0 0 0 0 0 0 0 0 0 0 0 0 0 0 0 0 0 0 0 0 0 0 0 0
0 0 0 0 0 0 0 0 0 0 0 0 0 0 0 0 0 0 0 0 0 0 0 0 0 0 0 0 0 0 0 0 0 0 0 0 0 0 0 0 0 0 0
0 0 0 0 0 0 0 0 0 0 0 0 0 0 0 0 0 0 0 0 0 0 0 0 0 0 0 0 0 0 0 0 0 0 0 0 0 0 0 0 0 0 0
0 0 0 0 0 0 0 0 0 0 0 0 0 0 0 0 0 0 0 0 0 0 0 0 0 0 0 0 0 0 0 0 0 0 0 0 0 0 0 0 0 0 0
0 0 0 0 0 0 0 0 0 0 0 0 0 0 0 0 0 0 0 0 0 0 0 0 0 0 0 0 0 0 0 0 0 0 0 0 0 0 0 0 0 0 0
0 0 0 0 0 0 0 0 0 0 0 0 0 0 0 0 0 0 0 0 0 0 0 0 0 0 0 0 0 0 0 0 0 0 0 0 0 0 0 0 0 0 0
0 0 0 0 0 0 0 0 0 0 0 0 0 0 0 0 0 0 0 0 0 0 0 0 0 0 0 0 0 0 0 0 0 0 0 0 0 0 0 0 0 0 0
0 0 0 0 0 0 0 0 0 0 0 0 0 0 0 0 0 0 0 0 0 0 0 0 0 0 0 0 0 0 0 0 0 0 0 0 0 0 0 0 0 0 0
0 0 0 0 0 0 0 0 0 0 0 0 0 0 0 0 0 0 0 0 0 0 0 0 0 0 0 0 0 0 0 0 0 0 0 0 0 0 0 0 0 0 0
0 0 0 0 0 0 0 0 0 0 0 0 0 0 0 0 0 0 0 0 0 0 0 0 0 0 0 0 0 0 0 0 0 0 0 0 0 0 0 0 0 0 0
Wind_Speed
7 10 9 10 11 10 10 10 11 11 11 11 11 11 11 10 10 11 12 13 13 14 14 14 14 13 13 12 12 12 12 12 13 13 12 13 13 14 14 13 9 11 13
7 11 9 9 10 10 10 10 10 10 10 11 10 10 9 9 9 11 12 12 13 13 13 13 13 13 12 11 11 10 10 10 10 10 7 9 12 13 13 13 13 10 14
7 11 11 8 9 9 9 9 10 10 10 10 10 9 9 8 9 10 11 11 12 13 13 13 13 13 12 11 10 10 8 8 8 6 2 6 9 11 12 12 12 13 13
7 10 10 9 9 9 9 9 9 9 10 10 9 9 8 8 9 10 11 11 12 12 12 13 13 13 12 12 11 9 8 7 6 3 3 6 7 10 10 10 10 11 12
5 8 8 7 8 9 9 8 8 8 9 9 8 8 8 8 9 10 11 11 12 11 12 12 12 13 13 12 11 10 8 6 3 1 5 5 6 9 9 9 9 9 10
4 6 7 5 7 8 8 8 8 8 8 8 7 7 7 7 8 9 10 11 11 11 11 11 12 13 13 12 12 10 8 6 2 3 4 5 6 8 8 7 6 7 8
4 3 4 4 4 7 8 8 7 7 7 7 7 6 6 7 8 9 10 11 11 10 10 11 11 12 12 12 12 10 9 7 4 4 4 5 7 8 8 7 5 5 7
6 4 2 1 2 5 7 7 7 7 7 7 6 7 6 6 8 9 10 10 10 10 10 10 10 11 12 12 12 11 10 8 3 4 4 5 8 7 7 7 6 5 5
9 7 5 2 3 4 5 7 7 7 7 7 6 6 6 6 7 8 9 10 10 10 10 9 9 10 11 11 11 11 10 9 5 4 5 5 9 6 6 6 6 6 5
9 8 7 5 3 3 5 6 6 6 6 6 6 5 5 6 7 8 8 9 10 10 10 9 8 8 9 10 10 9 8 5 6 5 4 7 11 8 6 6 6 6 5
9 8 7 6 5 4 3 3 5 5 5 5 5 5 5 4 5 6 7 9 10 10 10 10 8 7 6 7 8 7 4 4 5 4 4 10 11 10 7 6 5 6 5
11 10 7 6 5 3 2 3 3 3 3 4 3 3 3 2 2 3 7 8 9 10 11 11 10 7 2 3 4 3 3 5 4 4 5 10 11 11 10 8 6 5 5
9 9 9 7 5 3 2 2 2 1 1 1 2 2 2 1 2 2 3 5 5 5 4 7 6 3 2 2 3 3 4 4 3 3 4 8 10 11 11 10 8 6 5
10 11 10 8 4 2 2 1 1 1 1 2 3 3 1 0 1 2 2 3 2 1 1 1 1 1 2 2 2 2 3 3 3 3 3 6 9 10 11 11 11 9 7
10 11 11 9 4 1 3 2 3 4 5 6 7 6 5 2 1 2 2 2 2 2 1 1 1 1 1 1 1 2 3 3 4 4 3 4 8 9 11 11 12 12 10
10 11 10 10 8 7 6 7 7 8 8 9 9 11 10 7 5 5 5 4 4 3 3 2 2 2 2 2 3 3 4 3 4 4 5 4 4 7 9 10 11 12 13
9 9 10 10 11 12 12 12 9 9 9 9 9 12 12 11 9 8 7 6 6 5 4 4 4 3 2 2 3 3 3 4 4 5 5 4 4 4 6 9 11 11 13
8 8 9 9 12 14 13 12 10 10 11 10 9 10 14 13 11 9 8 7 7 5 5 5 4 3 3 3 3 3 3 3 5 5 4 4 5 5 5 8 10 11 12
7 7 8 10 12 13 14 13 12 11 12 10 10 10 11 13 12 10 9 8 7 7 6 5 5 4 4 4 4 4 4 4 4 4 5 5 5 5 5 6 8 9 11
6 7 8 9 10 11 10 10 10 12 11 10 10 11 12 11 12 10 9 10 9 8 8 7 7 6 5 6 5 4 4 3 3 3 4 3 4 5 5 6 6 5 9
8 8 8 8 7 6 5 6 8 9 9 10 11 13 14 13 13 12 9 10 10 10 11 11 7 8 8 7 5 5 3 1 3 3 4 4 5 5 6 7 6 6 6
8 8 8 9 9 8 7 7 7 9 9 10 10 13 14 14 14 11 13 11 10 10 12 12 11 8 7 9 7 6 5 2 4 4 4 4 6 6 7 8 8 8 7
8 8 7 9 10 11 11 10 9 9 8 9 10 10 13 14 14 13 14 12 12 11 10 12 11 12 9 9 9 7 6 6 8 4 5 5 8 9 9 9 10 10 9
7 7 8 9 10 10 9 9 11 10 10 8 8 9 11 12 13 13 13 12 11 10 10 10 11 9 9 8 6 7 5 5 6 7 5 6 9 10 10 9 11 11 10
6 7 8 10 10 10 10 12 13 12 11 8 9 10 10 10 11 11 11 10 10 9 9 10 9 9 7 7 6 5 5 5 5 6 9 10 10 8 9 11 10 9 9
6 7 8 10 10 10 10 11 13 14 12 12 10 9 8 7 7 10 9 9 8 7 8 8 7 8 7 7 5 4 5 5 6 7 10 13 12 10 11 8 8 8 8
Wind_Direction
170 162 145 148 142 135 126 119 115 113 111 110 108 106 103 100 95 90 88 82 77 71 67 64 62 61 57 54 52 50 50 53 56 60 67 67 64 60 53 40 36 58 50
158 163 149 152 145 138 131 126 122 119 118 115 112 108 104 99 96 94 89 80 74 68 64 61 58 56 53 50 48 47 51 56 59 55 57 81 70 62 57 50 44 49 50
158 163 160 157 147 139 134 131 130 127 125 121 117 112 105 99 96 97 90 80 72 65 60 56 52 48 45 43 41 41 48 58 59 47 360 73 78 67 60 55 51 51 51
158 168 166 155 152 144 141 140 138 134 131 127 122 116 108 101 98 97 90 81 70 61 55 50 45 41 37 36 34 35 45 58 56 342 46 56 69 66 58 53 52 52 52
153 174 162 162 160 153 150 148 144 139 135 130 126 119 112 106 102 98 93 82 71 60 52 47 41 36 32 30 29 30 41 53 43 344 56 49 59 58 52 49 51 54 53
126 172 165 174 170 162 159 158 154 148 143 139 133 128 121 114 109 105 99 86 74 62 54 48 41 34 29 27 26 28 35 27 299 53 50 37 45 49 44 42 46 55 55
80 131 165 176 187 174 170 169 165 160 156 151 147 142 136 131 125 118 106 94 81 69 60 54 44 36 31 28 27 31 35 10 10 46 41 37 41 32 33 30 31 44 47
54 54 70 139 233 198 183 180 176 173 169 169 167 163 158 153 143 130 117 104 90 77 68 63 50 41 35 31 31 34 31 8 23 39 36 38 27 21 30 25 24 29 37
44 36 21 345 237 228 210 197 191 186 183 185 185 179 171 165 153 139 129 116 102 88 81 75 60 50 41 36 35 34 29 6 5 28 22 28 6 7 24 18 11 13 19
39 28 15 355 319 260 229 212 212 205 201 203 200 188 180 177 164 153 143 127 114 104 99 92 78 68 53 44 39 32 19 345 20 17 17 19 359 356 6 7 359 354 355
26 19 9 354 333 301 261 238 227 221 220 224 215 195 199 203 182 166 147 133 126 121 119 114 106 94 76 58 44 28 7 14 12 11 16 6 355 348 345 348 345 341 339
3 2 357 344 323 297 258 234 227 218 217 230 244 229 220 213 172 150 142 141 137 137 138 137 133 128 92 43 53 21 21 8 0 9 19 4 353 344 337 333 330 328 327
351 354 350 338 314 273 226 211 207 202 209 233 261 255 237 215 167 154 144 143 141 145 145 147 150 142 110 74 38 33 21 3 359 356 13 4 353 346 338 332 326 319 316
359 357 350 342 323 257 207 175 162 113 67 37 18 359 310 220 174 150 138 138 141 137 131 149 146 145 136 117 80 46 28 6 358 349 360 358 348 347 342 336 329 321 308
4 357 352 354 13 108 134 103 79 63 52 44 33 20 19 27 55 85 76 76 92 91 92 51 22 8 347 23 25 14 13 4 348 340 336 349 338 340 342 340 335 328 318
2 355 355 10 35 71 77 69 59 56 53 49 40 31 33 35 44 55 55 49 44 41 46 57 47 25 4 0 353 353 339 339 334 327 325 322 318 331 335 335 337 338 334
3 3 12 29 50 64 67 66 61 58 59 53 45 39 41 44 49 56 55 48 40 40 48 54 49 43 28 4 342 331 316 311 310 310 312 317 321 324 328 334 334 334 334
15 22 33 50 63 68 70 70 66 61 60 54 47 44 44 47 51 57 56 49 42 41 43 45 33 35 29 359 331 314 297 289 286 294 303 315 324 329 329 341 336 332 329
29 42 55 64 73 78 78 76 71 65 59 54 49 47 45 47 50 56 55 48 43 44 41 39 37 25 15 354 326 306 292 288 300 307 316 327 331 329 328 334 329 320 323
52 63 74 77 83 89 87 83 77 67 61 55 51 47 48 48 49 56 56 49 43 43 37 32 37 33 16 346 320 305 300 312 323 338 345 356 357 349 340 338 326 322 319
64 69 75 82 87 96 92 85 78 69 64 61 55 51 51 50 51 53 54 50 46 46 38 30 24 25 21 356 335 327 328 25 39 35 24 23 28 16 358 349 339 333 322
68 72 76 77 80 81 87 88 87 91 77 72 66 58 55 55 53 54 55 53 48 49 43 35 29 25 28 19 0 337 337 339 24 358 10 9 5 358 352 348 339 328 319
70 70 78 84 86 90 97 103 107 99 90 77 68 63 55 58 59 57 57 56 51 50 46 40 34 33 28 29 27 11 350 343 329 325 353 350 353 344 336 332 325 318 313
79 84 88 90 90 94 103 107 108 104 98 89 84 79 69 59 58 57 58 57 54 50 47 41 38 35 33 27 23 22 11 337 323 320 319 338 340 328 326 325 321 318 313
99 99 100 97 92 95 100 105 105 102 104 104 98 89 79 67 59 56 55 56 54 50 46 41 37 36 33 27 19 4 354 341 335 311 310 321 320 321 323 318 312 310 315
122 115 114 109 102 104 107 107 109 113 117 114 106 99 87 77 66 58 56 55 51 46 41 36 33 34 27 21 12 6 349 335 329 315 308 312 312 313 313 303 300 308 314